# int64 1 10k | user_id stringclasses 10
values | type stringclasses 15
values | value stringlengths 1 34 | unit stringclasses 13
values | sourcename stringclasses 10
values | sourceversion stringclasses 48
values | device stringclasses 6
values | creationdate stringlengths 25 25 | startdate stringlengths 25 25 | enddate stringlengths 25 25 |
|---|---|---|---|---|---|---|---|---|---|---|
201 | 0cf3208cb912 | BasalEnergyBurned | 1.112 | kcal | source_9 | 17.4 | Apple Inc. iPhone | 2024-08-08 13:25:30 +0000 | 2024-08-08 13:06:12 +0000 | 2024-08-08 13:07:13 +0000 |
202 | 0cf3208cb912 | DistanceWalkingRunning | 0.02345 | km | source_9 | 17.4 | Apple Inc. iPhone | 2024-08-08 12:31:41 +0000 | 2024-08-08 12:13:00 +0000 | 2024-08-08 12:20:31 +0000 |
203 | 0cf3208cb912 | BasalEnergyBurned | 57.927 | kcal | source_9 | 17.4 | Apple Inc. iPhone | 2024-08-08 05:21:34 +0000 | 2024-08-07 18:31:26 +0000 | 2024-08-07 19:31:26 +0000 |
204 | 0cf3208cb912 | WalkingAsymmetryPercentage | 0.04 | % | source_9 | 17.4 | Apple Inc. iPhone | 2024-08-07 15:24:07 +0000 | 2024-08-07 15:10:27 +0000 | 2024-08-07 15:11:12 +0000 |
205 | 0cf3208cb912 | DistanceWalkingRunning | 0.10361 | km | source_9 | 17.4 | Apple Inc. iPhone | 2024-08-07 15:04:15 +0000 | 2024-08-07 14:50:35 +0000 | 2024-08-07 14:59:31 +0000 |
206 | 0cf3208cb912 | ActiveEnergyBurned | 0.337 | kcal | source_9 | 17.4 | Apple Inc. iPhone | 2024-08-07 07:26:29 +0000 | 2024-08-07 06:54:16 +0000 | 2024-08-07 06:54:36 +0000 |
207 | 0cf3208cb912 | StepCount | 288 | count | source_9 | 17.4 | Apple Inc. iPhone | 2024-08-05 13:43:53 +0000 | 2024-08-05 13:31:50 +0000 | 2024-08-05 13:41:49 +0000 |
208 | 0cf3208cb912 | DistanceWalkingRunning | 0.13809 | km | source_9 | 17.4 | Apple Inc. iPhone | 2024-08-05 13:31:22 +0000 | 2024-08-05 13:20:19 +0000 | 2024-08-05 13:28:58 +0000 |
209 | 0cf3208cb912 | ActiveEnergyBurned | 1.416 | kcal | source_9 | 17.4 | Apple Inc. iPhone | 2024-08-05 13:04:06 +0000 | 2024-08-05 12:53:56 +0000 | 2024-08-05 13:00:30 +0000 |
210 | 0cf3208cb912 | StepCount | 43 | count | source_9 | 17.4 | Apple Inc. iPhone | 2024-08-05 05:14:26 +0000 | 2024-08-05 05:04:16 +0000 | 2024-08-05 05:09:31 +0000 |
211 | 0cf3208cb912 | BasalEnergyBurned | 0.262 | kcal | source_9 | 17.4 | Apple Inc. iPhone | 2024-08-05 05:11:48 +0000 | 2024-08-05 04:54:15 +0000 | 2024-08-05 04:54:32 +0000 |
212 | 0cf3208cb912 | WalkingStepLength | 67 | cm | source_9 | 17.4 | Apple Inc. iPhone | 2024-08-05 05:13:30 +0000 | 2024-08-05 04:14:14 +0000 | 2024-08-05 04:15:34 +0000 |
213 | 0cf3208cb912 | ActiveEnergyBurned | 8.081 | kcal | source_9 | 17.4 | Apple Inc. iPhone | 2024-08-04 15:08:26 +0000 | 2024-08-04 14:56:14 +0000 | 2024-08-04 15:06:19 +0000 |
214 | 0cf3208cb912 | ActiveEnergyBurned | 0.017 | kcal | source_9 | 17.4 | Apple Inc. iPhone | 2024-08-04 13:17:18 +0000 | 2024-08-04 12:44:10 +0000 | 2024-08-04 12:44:20 +0000 |
215 | 0cf3208cb912 | BasalEnergyBurned | 4.336 | kcal | source_9 | 17.4 | Apple Inc. iPhone | 2024-08-04 12:30:30 +0000 | 2024-08-04 12:14:20 +0000 | 2024-08-04 12:18:36 +0000 |
216 | 0cf3208cb912 | BasalEnergyBurned | 57.927 | kcal | source_9 | 17.4 | Apple Inc. iPhone | 2024-08-04 07:27:26 +0000 | 2024-08-04 06:21:36 +0000 | 2024-08-04 07:21:36 +0000 |
217 | 0cf3208cb912 | StepCount | 243 | count | source_9 | 17.4 | Apple Inc. iPhone | 2024-08-03 14:59:56 +0000 | 2024-08-03 14:41:58 +0000 | 2024-08-03 14:51:52 +0000 |
218 | 0cf3208cb912 | StepCount | 324 | count | source_9 | 17.4 | Apple Inc. iPhone | 2024-08-03 14:10:19 +0000 | 2024-08-03 13:54:35 +0000 | 2024-08-03 14:03:18 +0000 |
219 | 0cf3208cb912 | WalkingSpeed | 3.6 | km/hr | source_9 | 17.4 | Apple Inc. iPhone | 2024-08-02 14:36:57 +0000 | 2024-08-02 14:20:15 +0000 | 2024-08-02 14:20:34 +0000 |
220 | 0cf3208cb912 | ActiveEnergyBurned | 4.387 | kcal | source_9 | 17.4 | Apple Inc. iPhone | 2024-08-02 14:28:45 +0000 | 2024-08-02 14:14:51 +0000 | 2024-08-02 14:20:42 +0000 |
221 | 0cf3208cb912 | WalkingStepLength | 47 | cm | source_9 | 17.4 | Apple Inc. iPhone | 2024-08-02 14:20:23 +0000 | 2024-08-02 13:34:18 +0000 | 2024-08-02 13:34:20 +0000 |
222 | 0cf3208cb912 | BasalEnergyBurned | 0.556 | kcal | source_9 | 17.4 | Apple Inc. iPhone | 2024-08-02 13:17:13 +0000 | 2024-08-02 12:58:58 +0000 | 2024-08-02 12:59:28 +0000 |
223 | 0cf3208cb912 | BasalEnergyBurned | 24.846 | kcal | source_9 | 17.4 | Apple Inc. iPhone | 2024-08-02 13:00:15 +0000 | 2024-08-02 12:33:13 +0000 | 2024-08-02 12:58:58 +0000 |
224 | 0cf3208cb912 | WalkingDoubleSupportPercentage | 0.269 | % | source_9 | 17.4 | Apple Inc. iPhone | 2024-08-01 15:16:32 +0000 | 2024-08-01 15:04:33 +0000 | 2024-08-01 15:05:47 +0000 |
225 | 0cf3208cb912 | BasalEnergyBurned | 1.708 | kcal | source_9 | 17.4 | Apple Inc. iPhone | 2024-08-01 14:03:02 +0000 | 2024-08-01 13:46:49 +0000 | 2024-08-01 13:48:32 +0000 |
226 | 0cf3208cb912 | WalkingStepLength | 87 | cm | source_9 | 17.4 | Apple Inc. iPhone | 2024-08-01 13:54:10 +0000 | 2024-08-01 13:36:04 +0000 | 2024-08-01 13:36:10 +0000 |
227 | 0cf3208cb912 | ActiveEnergyBurned | 5.016 | kcal | source_9 | 17.4 | Apple Inc. iPhone | 2024-08-01 13:31:37 +0000 | 2024-08-01 13:12:15 +0000 | 2024-08-01 13:21:41 +0000 |
228 | 0cf3208cb912 | BasalEnergyBurned | 57.927 | kcal | source_9 | 17.4 | Apple Inc. iPhone | 2024-08-01 01:47:56 +0000 | 2024-08-01 00:32:55 +0000 | 2024-08-01 01:32:55 +0000 |
229 | 0cf3208cb912 | WalkingDoubleSupportPercentage | 0.273 | % | source_9 | 17.4 | Apple Inc. iPhone | 2024-07-31 15:36:59 +0000 | 2024-07-31 15:11:22 +0000 | 2024-07-31 15:16:22 +0000 |
230 | 0cf3208cb912 | ActiveEnergyBurned | 0.241 | kcal | source_9 | 17.4 | Apple Inc. iPhone | 2024-07-31 15:10:11 +0000 | 2024-07-31 14:58:23 +0000 | 2024-07-31 15:00:15 +0000 |
231 | 0cf3208cb912 | StepCount | 112 | count | source_9 | 17.4 | Apple Inc. iPhone | 2024-07-31 14:04:42 +0000 | 2024-07-31 13:52:13 +0000 | 2024-07-31 14:02:08 +0000 |
232 | 0cf3208cb912 | WalkingStepLength | 57 | cm | source_9 | 17.4 | Apple Inc. iPhone | 2024-07-31 13:53:30 +0000 | 2024-07-31 13:25:45 +0000 | 2024-07-31 13:25:48 +0000 |
233 | 0cf3208cb912 | WalkingDoubleSupportPercentage | 0.293 | % | source_9 | 17.4 | Apple Inc. iPhone | 2024-07-31 12:48:11 +0000 | 2024-07-31 12:32:36 +0000 | 2024-07-31 12:32:44 +0000 |
234 | 0cf3208cb912 | WalkingStepLength | 69 | cm | source_9 | 17.4 | Apple Inc. iPhone | 2024-07-30 06:08:54 +0000 | 2024-07-30 05:53:01 +0000 | 2024-07-30 05:53:33 +0000 |
235 | 0cf3208cb912 | WalkingSpeed | 4.968 | km/hr | source_9 | 17.4 | Apple Inc. iPhone | 2024-07-30 05:59:45 +0000 | 2024-07-30 05:36:18 +0000 | 2024-07-30 05:37:10 +0000 |
236 | 0cf3208cb912 | WalkingStepLength | 56 | cm | source_9 | 17.4 | Apple Inc. iPhone | 2024-07-29 15:11:40 +0000 | 2024-07-29 14:58:36 +0000 | 2024-07-29 14:59:01 +0000 |
237 | 0cf3208cb912 | ActiveEnergyBurned | 2.34 | kcal | source_9 | 17.4 | Apple Inc. iPhone | 2024-07-29 15:09:20 +0000 | 2024-07-29 14:58:21 +0000 | 2024-07-29 15:08:02 +0000 |
238 | 0cf3208cb912 | WalkingSpeed | 2.448 | km/hr | source_9 | 17.4 | Apple Inc. iPhone | 2024-07-29 14:23:42 +0000 | 2024-07-29 14:01:24 +0000 | 2024-07-29 14:01:27 +0000 |
239 | 0cf3208cb912 | WalkingSpeed | 2.088 | km/hr | source_9 | 17.4 | Apple Inc. iPhone | 2024-07-29 13:25:16 +0000 | 2024-07-29 12:48:44 +0000 | 2024-07-29 12:48:52 +0000 |
240 | 0cf3208cb912 | StepCount | 947 | count | source_9 | 17.4 | Apple Inc. iPhone | 2024-07-28 15:32:57 +0000 | 2024-07-28 15:19:48 +0000 | 2024-07-28 15:29:22 +0000 |
241 | 0cf3208cb912 | BasalEnergyBurned | 17.472 | kcal | source_9 | 17.4 | Apple Inc. iPhone | 2024-07-28 15:21:36 +0000 | 2024-07-28 15:01:52 +0000 | 2024-07-28 15:19:43 +0000 |
242 | 0cf3208cb912 | StepCount | 49 | count | source_9 | 17.4 | Apple Inc. iPhone | 2024-07-28 14:42:20 +0000 | 2024-07-28 14:29:57 +0000 | 2024-07-28 14:30:53 +0000 |
243 | 0cf3208cb912 | WalkingStepLength | 60 | cm | source_9 | 17.4 | Apple Inc. iPhone | 2024-07-28 13:17:24 +0000 | 2024-07-28 12:59:53 +0000 | 2024-07-28 13:00:12 +0000 |
244 | 0cf3208cb912 | DistanceWalkingRunning | 0.18711 | km | source_9 | 17.4 | Apple Inc. iPhone | 2024-07-28 12:46:43 +0000 | 2024-07-28 12:36:34 +0000 | 2024-07-28 12:44:57 +0000 |
245 | 0cf3208cb912 | WalkingAsymmetryPercentage | 0 | % | source_9 | 17.4 | Apple Inc. iPhone | 2024-07-28 12:48:45 +0000 | 2024-07-28 12:31:38 +0000 | 2024-07-28 12:32:18 +0000 |
246 | 0cf3208cb912 | ActiveEnergyBurned | 0.052 | kcal | source_9 | 17.4 | Apple Inc. iPhone | 2024-07-27 14:45:55 +0000 | 2024-07-27 14:31:18 +0000 | 2024-07-27 14:31:28 +0000 |
247 | 0cf3208cb912 | WalkingStepLength | 57 | cm | source_9 | 17.4 | Apple Inc. iPhone | 2024-07-27 15:02:02 +0000 | 2024-07-27 14:15:52 +0000 | 2024-07-27 14:16:13 +0000 |
248 | 0cf3208cb912 | StepCount | 25 | count | source_9 | 17.4 | Apple Inc. iPhone | 2024-07-27 06:52:56 +0000 | 2024-07-27 06:31:02 +0000 | 2024-07-27 06:31:12 +0000 |
249 | 0cf3208cb912 | DistanceWalkingRunning | 0.0169 | km | source_9 | 17.4 | Apple Inc. iPhone | 2024-07-26 15:45:32 +0000 | 2024-07-26 15:34:29 +0000 | 2024-07-26 15:34:39 +0000 |
250 | 0cf3208cb912 | WalkingDoubleSupportPercentage | 0.267 | % | source_9 | 17.4 | Apple Inc. iPhone | 2024-07-26 15:20:00 +0000 | 2024-07-26 15:04:00 +0000 | 2024-07-26 15:09:00 +0000 |
251 | 0cf3208cb912 | BasalEnergyBurned | 3.845 | kcal | source_9 | 17.4 | Apple Inc. iPhone | 2024-07-26 13:17:06 +0000 | 2024-07-26 13:03:14 +0000 | 2024-07-26 13:07:09 +0000 |
252 | 0cf3208cb912 | DistanceWalkingRunning | 0.23832 | km | source_9 | 17.4 | Apple Inc. iPhone | 2024-07-26 12:27:11 +0000 | 2024-07-26 12:12:10 +0000 | 2024-07-26 12:21:49 +0000 |
253 | 0cf3208cb912 | ActiveEnergyBurned | 0.981 | kcal | source_9 | 17.4 | Apple Inc. iPhone | 2024-07-26 04:37:51 +0000 | 2024-07-26 04:27:40 +0000 | 2024-07-26 04:36:59 +0000 |
254 | 0cf3208cb912 | WalkingSpeed | 3.204 | km/hr | source_9 | 17.4 | Apple Inc. iPhone | 2024-07-26 04:18:22 +0000 | 2024-07-26 04:06:03 +0000 | 2024-07-26 04:06:06 +0000 |
255 | 0cf3208cb912 | WalkingDoubleSupportPercentage | 0.288 | % | source_9 | 17.4 | Apple Inc. iPhone | 2024-07-25 15:30:41 +0000 | 2024-07-25 15:20:14 +0000 | 2024-07-25 15:20:20 +0000 |
256 | 0cf3208cb912 | DistanceWalkingRunning | 0.29149 | km | source_9 | 17.4 | Apple Inc. iPhone | 2024-07-25 12:32:55 +0000 | 2024-07-25 12:21:40 +0000 | 2024-07-25 12:31:14 +0000 |
257 | 0cf3208cb912 | BasalEnergyBurned | 5.709 | kcal | source_9 | 17.4 | Apple Inc. iPhone | 2024-07-24 16:27:28 +0000 | 2024-07-24 16:10:21 +0000 | 2024-07-24 16:16:07 +0000 |
258 | 0cf3208cb912 | DistanceWalkingRunning | 0.04781 | km | source_9 | 17.4 | Apple Inc. iPhone | 2024-07-24 15:19:24 +0000 | 2024-07-24 15:06:02 +0000 | 2024-07-24 15:13:09 +0000 |
259 | 0cf3208cb912 | ActiveEnergyBurned | 0.014 | kcal | source_9 | 17.4 | Apple Inc. iPhone | 2024-07-24 12:20:23 +0000 | 2024-07-24 12:05:58 +0000 | 2024-07-24 12:06:08 +0000 |
260 | 0cf3208cb912 | StepCount | 30 | count | source_9 | 17.4 | Apple Inc. iPhone | 2024-07-24 12:06:03 +0000 | 2024-07-24 11:53:50 +0000 | 2024-07-24 11:55:33 +0000 |
261 | 0cf3208cb912 | ActiveEnergyBurned | 1.311 | kcal | source_9 | 17.4 | Apple Inc. iPhone | 2024-07-23 15:43:39 +0000 | 2024-07-23 15:08:06 +0000 | 2024-07-23 15:12:01 +0000 |
262 | 0cf3208cb912 | DistanceWalkingRunning | 0.02612 | km | source_9 | 17.4 | Apple Inc. iPhone | 2024-07-23 10:53:42 +0000 | 2024-07-23 10:43:04 +0000 | 2024-07-23 10:44:54 +0000 |
263 | 0cf3208cb912 | BasalEnergyBurned | 0.328 | kcal | source_9 | 17.4 | Apple Inc. iPhone | 2024-07-23 06:43:31 +0000 | 2024-07-23 06:26:14 +0000 | 2024-07-23 06:26:35 +0000 |
264 | 0cf3208cb912 | WalkingDoubleSupportPercentage | 0.262 | % | source_9 | 17.4 | Apple Inc. iPhone | 2024-07-22 15:48:04 +0000 | 2024-07-22 15:35:25 +0000 | 2024-07-22 15:40:24 +0000 |
265 | 0cf3208cb912 | DistanceWalkingRunning | 0.58611 | km | source_9 | 17.4 | Apple Inc. iPhone | 2024-07-22 15:47:02 +0000 | 2024-07-22 15:30:16 +0000 | 2024-07-22 15:39:40 +0000 |
266 | 0cf3208cb912 | WalkingSpeed | 2.34 | km/hr | source_9 | 17.4 | Apple Inc. iPhone | 2024-07-22 13:51:06 +0000 | 2024-07-22 13:37:58 +0000 | 2024-07-22 13:38:01 +0000 |
267 | 0cf3208cb912 | DistanceWalkingRunning | 0.0129 | km | source_9 | 17.4 | Apple Inc. iPhone | 2024-07-21 15:39:41 +0000 | 2024-07-21 15:28:38 +0000 | 2024-07-21 15:29:06 +0000 |
268 | 0cf3208cb912 | StepCount | 164 | count | source_9 | 17.4 | Apple Inc. iPhone | 2024-07-21 12:23:03 +0000 | 2024-07-21 12:07:37 +0000 | 2024-07-21 12:15:51 +0000 |
269 | 0cf3208cb912 | WalkingSpeed | 3.78 | km/hr | source_9 | 17.4 | Apple Inc. iPhone | 2024-07-20 17:32:00 +0000 | 2024-07-20 17:20:04 +0000 | 2024-07-20 17:20:45 +0000 |
270 | 0cf3208cb912 | BasalEnergyBurned | 10.427 | kcal | source_9 | 17.4 | Apple Inc. iPhone | 2024-07-20 17:32:43 +0000 | 2024-07-20 17:16:23 +0000 | 2024-07-20 17:26:45 +0000 |
271 | 0cf3208cb912 | BasalEnergyBurned | 0.164 | kcal | source_9 | 17.4 | Apple Inc. iPhone | 2024-07-20 15:22:38 +0000 | 2024-07-20 14:59:27 +0000 | 2024-07-20 14:59:38 +0000 |
272 | 0cf3208cb912 | BasalEnergyBurned | 13.86 | kcal | source_9 | 17.4 | Apple Inc. iPhone | 2024-07-20 14:25:53 +0000 | 2024-07-20 14:02:23 +0000 | 2024-07-20 14:16:33 +0000 |
273 | 0cf3208cb912 | BasalEnergyBurned | 57.927 | kcal | source_9 | 17.4 | Apple Inc. iPhone | 2024-07-20 12:32:15 +0000 | 2024-07-20 08:36:24 +0000 | 2024-07-20 09:36:24 +0000 |
274 | 0cf3208cb912 | ActiveEnergyBurned | 0.009 | kcal | source_9 | 17.4 | Apple Inc. iPhone | 2024-07-19 16:20:23 +0000 | 2024-07-19 15:57:49 +0000 | 2024-07-19 15:57:59 +0000 |
275 | 0cf3208cb912 | WalkingDoubleSupportPercentage | 0.288 | % | source_9 | 17.4 | Apple Inc. iPhone | 2024-07-19 14:36:19 +0000 | 2024-07-19 14:01:05 +0000 | 2024-07-19 14:01:10 +0000 |
276 | 0cf3208cb912 | DistanceWalkingRunning | 0.12782 | km | source_9 | 17.4 | Apple Inc. iPhone | 2024-07-19 03:39:23 +0000 | 2024-07-19 03:25:45 +0000 | 2024-07-19 03:34:14 +0000 |
277 | 0cf3208cb912 | BasalEnergyBurned | 3.126 | kcal | source_9 | 17.4 | Apple Inc. iPhone | 2024-07-19 02:13:47 +0000 | 2024-07-19 01:57:26 +0000 | 2024-07-19 02:00:23 +0000 |
278 | 0cf3208cb912 | BasalEnergyBurned | 14.447 | kcal | source_9 | 17.4 | Apple Inc. iPhone | 2024-07-18 15:16:07 +0000 | 2024-07-18 15:00:07 +0000 | 2024-07-18 15:14:56 +0000 |
279 | 0cf3208cb912 | WalkingSpeed | 3.42 | km/hr | source_9 | 17.4 | Apple Inc. iPhone | 2024-07-18 14:46:39 +0000 | 2024-07-18 14:08:13 +0000 | 2024-07-18 14:08:21 +0000 |
280 | 0cf3208cb912 | WalkingDoubleSupportPercentage | 0.279 | % | source_9 | 17.4 | Apple Inc. iPhone | 2024-07-17 15:39:35 +0000 | 2024-07-17 15:34:05 +0000 | 2024-07-17 15:34:14 +0000 |
281 | 0cf3208cb912 | WalkingAsymmetryPercentage | 0 | % | source_9 | 17.4 | Apple Inc. iPhone | 2024-07-17 15:28:33 +0000 | 2024-07-17 15:11:54 +0000 | 2024-07-17 15:16:54 +0000 |
282 | 0cf3208cb912 | BasalEnergyBurned | 30.399 | kcal | source_9 | 17.4 | Apple Inc. iPhone | 2024-07-17 14:25:29 +0000 | 2024-07-17 13:53:47 +0000 | 2024-07-17 14:25:16 +0000 |
283 | 0cf3208cb912 | StepCount | 112 | count | source_9 | 17.4 | Apple Inc. iPhone | 2024-07-17 07:12:13 +0000 | 2024-07-17 06:54:16 +0000 | 2024-07-17 06:58:09 +0000 |
284 | 0cf3208cb912 | BasalEnergyBurned | 57.927 | kcal | source_9 | 17.4 | Apple Inc. iPhone | 2024-07-17 04:40:21 +0000 | 2024-07-16 22:39:12 +0000 | 2024-07-16 23:39:12 +0000 |
285 | 0cf3208cb912 | BasalEnergyBurned | 37.867 | kcal | source_9 | 17.4 | Apple Inc. iPhone | 2024-07-16 14:48:35 +0000 | 2024-07-16 14:00:42 +0000 | 2024-07-16 14:39:56 +0000 |
286 | 0cf3208cb912 | BasalEnergyBurned | 21.803 | kcal | source_9 | 17.4 | Apple Inc. iPhone | 2024-07-16 14:01:53 +0000 | 2024-07-16 13:37:57 +0000 | 2024-07-16 14:00:32 +0000 |
287 | 0cf3208cb912 | BasalEnergyBurned | 9.889 | kcal | source_9 | 17.4 | Apple Inc. iPhone | 2024-07-15 15:57:11 +0000 | 2024-07-15 15:34:40 +0000 | 2024-07-15 15:44:55 +0000 |
288 | 0cf3208cb912 | WalkingDoubleSupportPercentage | 0.267 | % | source_9 | 17.4 | Apple Inc. iPhone | 2024-07-15 13:29:29 +0000 | 2024-07-15 13:07:56 +0000 | 2024-07-15 13:08:12 +0000 |
289 | 0cf3208cb912 | WalkingStepLength | 53 | cm | source_9 | 17.4 | Apple Inc. iPhone | 2024-07-15 13:29:29 +0000 | 2024-07-15 13:05:39 +0000 | 2024-07-15 13:05:49 +0000 |
290 | 0cf3208cb912 | BasalEnergyBurned | 1.606 | kcal | source_9 | 17.4 | Apple Inc. iPhone | 2024-07-15 08:18:27 +0000 | 2024-07-15 08:02:16 +0000 | 2024-07-15 08:03:48 +0000 |
291 | 0cf3208cb912 | DistanceWalkingRunning | 0.13608 | km | source_9 | 17.4 | Apple Inc. iPhone | 2024-07-14 15:53:14 +0000 | 2024-07-14 15:42:05 +0000 | 2024-07-14 15:51:34 +0000 |
292 | 0cf3208cb912 | DistanceWalkingRunning | 0.18831 | km | source_9 | 17.4 | Apple Inc. iPhone | 2024-07-14 15:36:30 +0000 | 2024-07-14 15:22:07 +0000 | 2024-07-14 15:32:06 +0000 |
293 | 0cf3208cb912 | WalkingStepLength | 50 | cm | source_9 | 17.4 | Apple Inc. iPhone | 2024-07-14 15:30:45 +0000 | 2024-07-14 15:14:32 +0000 | 2024-07-14 15:14:38 +0000 |
294 | 0cf3208cb912 | DistanceWalkingRunning | 0.05783 | km | source_9 | 17.4 | Apple Inc. iPhone | 2024-07-13 16:48:28 +0000 | 2024-07-13 16:36:51 +0000 | 2024-07-13 16:46:46 +0000 |
295 | 0cf3208cb912 | BasalEnergyBurned | 14.443 | kcal | source_9 | 17.4 | Apple Inc. iPhone | 2024-07-13 16:58:07 +0000 | 2024-07-13 16:36:49 +0000 | 2024-07-13 16:51:45 +0000 |
296 | 0cf3208cb912 | WalkingDoubleSupportPercentage | 0.28 | % | source_9 | 17.4 | Apple Inc. iPhone | 2024-07-13 15:51:51 +0000 | 2024-07-13 15:41:22 +0000 | 2024-07-13 15:41:24 +0000 |
297 | 0cf3208cb912 | WalkingDoubleSupportPercentage | 0.304 | % | source_9 | 17.4 | Apple Inc. iPhone | 2024-07-13 13:50:56 +0000 | 2024-07-13 13:37:25 +0000 | 2024-07-13 13:37:28 +0000 |
298 | 0cf3208cb912 | WalkingDoubleSupportPercentage | 0.28 | % | source_9 | 17.4 | Apple Inc. iPhone | 2024-07-13 13:28:26 +0000 | 2024-07-13 13:18:12 +0000 | 2024-07-13 13:18:18 +0000 |
299 | 0cf3208cb912 | BasalEnergyBurned | 57.927 | kcal | source_9 | 17.4 | Apple Inc. iPhone | 2024-07-13 06:19:38 +0000 | 2024-07-13 05:14:11 +0000 | 2024-07-13 06:14:11 +0000 |
300 | 0cf3208cb912 | ActiveEnergyBurned | 6.476 | kcal | source_9 | 17.4 | Apple Inc. iPhone | 2024-07-12 15:17:41 +0000 | 2024-07-12 15:07:31 +0000 | 2024-07-12 15:14:11 +0000 |
Subsets and Splits
No community queries yet
The top public SQL queries from the community will appear here once available.